Weather Service Report


889 
ASUS46 KPQR 260510
RWROR 

OREGON REGIONAL WEATHER ROUNDUP
NATIONAL WEATHER SERVICE PORTLAND OR
1000 PM PDT SUN JUN 25 2017

NOTE: "FAIR" INDICATES FEW OR NO CLOUDS BELOW 12,000 FEET WITH
NO SIGNIFICANT WEATHER AND/OR OBSTRUCTIONS TO VISIBILITY.

ORZ001>013-260600-
NORTHWEST OREGON

  
CITY           SKY/WX    TMP DP  RH WIND       PRES   REMARKS
ASTORIA        CLOUDY    57  54  89 SW10      29.99R FOG              
NEWPORT        CLOUDY    55  54  94 S9        30.05R FOG              
PORTLAND       PTCLDY    75  57  53 N5        29.89R                  
VANCOUVER WA   PTCLDY    74  58  57 CALM      29.89R                  
SCAPPOOSE      CLEAR     73  55  53 N7        29.88R                  
HILLSBORO      PTCLDY    73  55  53 NW8       29.88R                  
AURORA         MOCLDY    73  55  53 SW7       29.91R                  
MCMINNVILLE    PTCLDY    64  53  67 SW14      29.92R                  
SALEM          MOCLDY    69  53  56 SW8       29.93R                  
CORVALLIS      MOCLDY    61  50  67 NW7       29.96S                  
EUGENE         CLOUDY    64  52  64 W10       29.97S                  
$$

ORZ021-028-260600-
SOUTHWEST OREGON

  
CITY           SKY/WX    TMP DP  RH WIND       PRES   REMARKS
NORTH BEND     CLOUDY    57  54  88 S6        30.02S                  
BROOKINGS      CLOUDY    55  54  96 CALM      30.03S                  
ROSEBURG       CLOUDY    77  56  48 N9        29.89F                  
SEXTON SUMMIT  CLOUDY    69  53  56 W8        30.05F                  
GRANTS PASS    FAIR      70  68  94 CALM      29.95R                  
MEDFORD        CLOUDY    82  56  40 S7        29.88S                  
$$

ORZ014>016-041-260600-
COLUMBIA GORGE

  
CITY           SKY/WX    TMP DP  RH WIND       PRES   REMARKS
TROUTDALE      PTCLDY    79  58  48 N3        29.88R                  
HOOD RIVER     CLOUDY    81  55  41 CALM      29.85R                  
THE DALLES     CLOUDY    84  56  38 CALM      29.80R                  
$$

ORZ029>031-041-044-049-050-061>064-502-503-505>511-260600-
EASTERN OREGON

  
CITY           SKY/WX    TMP DP  RH WIND       PRES   REMARKS
MADRAS         CLOUDY    81  43  26 E8        29.94F                  
REDMOND        CLOUDY    83  41  22 SW22G31   30.02R                  
BEND           CLOUDY   N/A N/A N/A SW24G33   30.06R                  
PRINEVILLE     CLOUDY    77  46  33 S5        30.03R                  
KLAMATH FALLS  MOCLDY    67  54  63 CALM      30.10R                  
LAKEVIEW       MOCLDY    68  45  43 NW7       30.13R                  
HERMISTON      MOCLDY    80  53  39 CALM      29.78R                  
PENDLETON      MOCLDY    80  51  36 CALM      29.84R                  
JOHN DAY       CLEAR     81  37  20 CALM      30.01R                  
MEACHAM        MOCLDY    67  53  61 CALM      30.03R                  
LA GRANDE      MOCLDY    75  21  13 CALM      29.96R                  
BAKER CITY     PTCLDY    70  36  28 SE5       30.02R                  
BURNS          PTCLDY    62  38  40 N6        30.05R                  
ROME             N/A     73  27  18 NE7       30.02R                  
ONTARIO        CLEAR     71  53  52 W5        29.94R                  
$$
  

Return to Home page


Western Regional Climate Center, wrcc@dri.edu